Time,TemperatureF,DewpointF,PressureIn,WindDirection,WindDirectionDegrees,WindSpeedMPH,WindSpeedGustMPH,Humidity,HourlyPrecipIn,Conditions,Clouds,dailyrainin,SoftwareType,DateUTC
2013-11-14 00:44:00,36.0,-99.9,30.44,North,-999,10.0,17.0,-999,0.00,,,-99.99,,2013-11-14 05:44:00,
2013-11-14 00:52:00,36.0,-99.9,30.43,North,-999,14.0,19.0,-999,0.00,,,-99.99,,2013-11-14 05:52:00,
2013-11-14 01:42:00,36.0,-99.9,30.43,North,-999,14.0,19.0,-999,0.00,,,-99.99,,2013-11-14 06:42:00,
2013-11-14 01:52:00,35.0,-99.9,30.42,North,-999,9.0,13.0,-999,0.00,,,-99.99,,2013-11-14 06:52:00,
2013-11-14 02:42:00,35.0,-99.9,30.42,North,-999,9.0,13.0,-999,0.00,,,-99.99,,2013-11-14 07:42:00,
2013-11-14 02:52:00,36.0,-99.9,30.41,North,-999,10.0,15.0,-999,0.00,,,-99.99,,2013-11-14 07:52:00,
2013-11-14 03:42:00,36.0,-99.9,30.41,North,-999,10.0,15.0,-999,0.00,,,-99.99,,2013-11-14 08:42:00,
2013-11-14 03:52:00,35.0,-99.9,30.41,North,-999,13.0,13.0,-999,0.00,,,-99.99,,2013-11-14 08:52:00,
2013-11-14 04:43:00,35.0,-99.9,30.41,North,-999,13.0,13.0,-999,0.00,,,-99.99,,2013-11-14 09:43:00,
2013-11-14 04:52:00,35.0,-99.9,30.41,North,-999,11.0,22.0,-999,0.00,,,-99.99,,2013-11-14 09:52:00,
2013-11-14 05:43:00,35.0,-99.9,30.41,North,-999,11.0,22.0,-999,0.00,,,-99.99,,2013-11-14 10:43:00,
2013-11-14 06:52:00,35.0,-99.9,30.42,North,-999,9.0,18.0,-999,0.00,,,-99.99,,2013-11-14 11:52:00,
2013-11-14 07:42:00,35.0,-99.9,30.42,North,-999,9.0,18.0,-999,0.00,,,-99.99,,2013-11-14 12:42:00,
2013-11-14 08:52:00,42.0,-99.9,30.43,North,-999,14.0,20.0,-999,0.00,,,-99.99,,2013-11-14 13:52:00,
2013-11-14 09:42:00,42.0,-99.9,30.43,North,-999,14.0,20.0,-999,0.00,,,-99.99,,2013-11-14 14:42:00,
2013-11-14 09:52:00,46.0,-99.9,30.42,North,-999,17.0,19.0,-999,0.00,,,-99.99,,2013-11-14 14:52:00,
2013-11-14 10:43:00,46.0,-99.9,30.42,North,-999,17.0,19.0,-999,0.00,,,-99.99,,2013-11-14 15:43:00,
2013-11-14 10:52:00,50.0,-99.9,30.39,North,-999,12.0,21.0,-999,0.00,,,-99.99,,2013-11-14 15:52:00,
2013-11-14 11:43:00,50.0,-99.9,30.39,North,-999,12.0,21.0,-999,0.00,,,-99.99,,2013-11-14 16:43:00,
2013-11-14 11:52:00,51.0,-99.9,30.35,North,-999,12.0,22.0,-999,0.00,,,-99.99,,2013-11-14 16:52:00,
2013-11-14 12:42:00,51.0,-99.9,30.35,North,-999,12.0,22.0,-999,0.00,,,-99.99,,2013-11-14 17:42:00,
2013-11-14 12:52:00,54.0,-99.9,30.32,North,-999,9.0,28.0,-999,0.00,,,-99.99,,2013-11-14 17:52:00,
2013-11-14 13:42:00,54.0,-99.9,30.32,North,-999,9.0,28.0,-999,0.00,,,-99.99,,2013-11-14 18:42:00,
2013-11-14 13:52:00,54.0,-99.9,30.29,North,-999,16.0,23.0,-999,0.00,,,-99.99,,2013-11-14 18:52:00,
2013-11-14 14:42:00,54.0,-99.9,30.29,North,-999,16.0,23.0,-999,0.00,,,-99.99,,2013-11-14 19:42:00,
2013-11-14 14:52:00,54.0,-99.9,30.27,North,-999,13.0,22.0,-999,0.00,,,-99.99,,2013-11-14 19:52:00,
2013-11-14 15:42:00,54.0,-99.9,30.27,North,-999,13.0,22.0,-999,0.00,,,-99.99,,2013-11-14 20:42:00,
2013-11-14 15:52:00,54.0,-99.9,30.27,North,-999,11.0,18.0,-999,0.00,,,-99.99,,2013-11-14 20:52:00,
2013-11-14 16:43:00,54.0,-99.9,30.27,North,-999,11.0,18.0,-999,0.00,,,-99.99,,2013-11-14 21:43:00,
2013-11-14 16:52:00,52.0,-99.9,30.27,North,-999,7.0,10.0,-999,0.00,,,-99.99,,2013-11-14 21:52:00,
2013-11-14 17:43:00,52.0,-99.9,30.27,North,-999,7.0,10.0,-999,0.00,,,-99.99,,2013-11-14 22:43:00,
2013-11-14 17:52:00,51.0,-99.9,30.29,North,-999,11.0,13.0,-999,0.00,,,-99.99,,2013-11-14 22:52:00,
2013-11-14 18:43:00,51.0,-99.9,30.29,North,-999,11.0,13.0,-999,0.00,,,-99.99,,2013-11-14 23:43:00,
2013-11-14 18:52:00,49.0,-99.9,30.32,North,-999,10.0,13.0,-999,0.00,,,-99.99,,2013-11-14 23:52:00,
2013-11-14 19:42:00,49.0,-99.9,30.32,North,-999,10.0,13.0,-999,0.00,,,-99.99,,2013-11-15 00:42:00,
2013-11-14 20:52:00,46.0,-99.9,30.34,North,-999,10.0,14.0,-999,0.00,,,-99.99,,2013-11-15 01:52:00,
2013-11-14 21:42:00,46.0,-99.9,30.34,North,-999,10.0,14.0,-999,0.00,,,-99.99,,2013-11-15 02:42:00,
2013-11-14 21:52:00,46.0,-99.9,30.34,North,-999,10.0,14.0,-999,0.00,,,-99.99,,2013-11-15 02:52:00,
2013-11-14 22:44:00,46.0,-99.9,30.34,North,-999,10.0,14.0,-999,0.00,,,-99.99,,2013-11-15 03:44:00,
2013-11-14 22:52:00,47.0,-99.9,30.33,North,-999,8.0,11.0,-999,0.00,,,-99.99,,2013-11-15 03:52:00,
2013-11-14 23:43:00,47.0,-99.9,30.33,North,-999,8.0,11.0,-999,0.00,,,-99.99,,2013-11-15 04:43:00,
2013-11-14 23:52:00,48.0,-99.9,30.32,North,-999,9.0,10.0,-999,0.00,,,-99.99,,2013-11-15 04:52:00,